Location: Glencliff
(36.1226°N, 86.7183°W)
Time: 14:41:33
(UTC+00:00)

Ariane Rocket - Pass Details

Date: 25 August 2019
Orbit: 760 x 770 km, 98.8° (Epoch: 19 September)

Event Time Altitude Azimuth Distance (km) Brightness Sun altitude
Rises 01:04:49 0° 175° (S) 3,209 6.0 -8.4°
Reaches altitude 10° 01:07:09 10° 179° (S) 2,286 5.3 -8.8°
Maximum altitude 01:12:06 58° 259° (WSW) 884 3.7 -9.7°
Drops below altitude 10° 01:17:05 10° 338° (NNW) 2,298 6.1 -10.7°
Sets 01:19:26 0° 343° (NNW) 3,228 6.9 -11.1°
